Temperature
14 14 14 14 13 13 13 13 13 13 13 13 13 13 13 12 12 12 12 12 12 12 12 12 12 12 12 11 11 11 11 11 11 10 10 10 10 10 10 10 10 10 10
13 13 13 13 13 13 13 13 13 13 13 13 13 13 12 12 12 12 12 12 12 12 12 12 12 11 11 11 11 11 11 10 10 10 10 10 10 10 10 10 10 10 10
13 13 13 13 13 13 13 13 13 13 13 13 12 12 12 12 12 12 12 12 11 11 11 11 11 11 11 11 11 11 10 10 10 10 10 10 9 9 9 9 10 10 10
13 13 13 13 13 13 13 13 13 12 12 12 12 12 12 12 12 12 11 11 11 11 11 11 11 11 11 11 11 10 10 10 10 10 10 10 9 9 9 9 9 9 9
13 13 13 13 13 12 12 12 12 12 12 12 12 12 12 12 11 11 11 11 11 11 11 11 11 11 11 11 10 10 10 10 10 10 10 9 9 9 9 9 9 9 9
12 12 12 12 12 12 12 12 12 12 12 12 12 11 11 11 11 11 11 11 11 11 11 11 11 11 11 11 10 10 10 10 10 10 9 9 9 9 9 9 8 8 8
12 12 12 12 12 12 11 11 11 11 11 11 11 11 11 11 11 11 11 11 11 10 10 10 10 10 10 10 10 10 10 10 9 9 9 9 9 9 9 9 8 8 8
11 11 11 11 11 11 11 11 11 11 11 11 11 11 11 11 11 11 11 10 10 10 10 10 10 10 10 10 10 10 10 9 9 9 9 9 9 9 9 8 8 8 8
11 11 11 11 11 11 11 11 11 11 11 10 10 10 10 10 10 10 10 10 10 10 10 10 10 10 10 10 9 9 9 9 9 9 9 9 9 8 8 8 8 8 8
11 11 11 11 11 11 11 10 10 10 10 10 10 10 10 10 10 10 10 9 9 9 9 9 9 9 9 9 9 9 9 9 9 9 8 8 8 8 8 8 8 7 8
11 11 10 10 10 10 10 10 10 10 10 10 10 10 10 10 10 10 9 9 9 9 9 9 9 9 9 9 9 9 9 9 8 8 8 8 8 8 8 8 7 7 7
10 10 10 10 10 10 10 10 9 9 9 9 9 9 9 9 9 9 9 9 9 8 8 8 8 9 9 9 8 8 8 8 8 8 8 7 7 7 7 7 7 7 7
10 10 10 10 10 10 9 9 9 9 9 9 9 9 9 9 8 9 9 9 8 8 8 8 8 8 8 8 8 8 8 8 7 7 7 7 7 7 7 7 7 7 7
10 10 9 9 9 9 9 9 9 9 9 9 8 8 8 8 8 8 8 8 8 8 8 8 8 8 8 8 8 8 7 7 7 7 7 7 7 7 7 7 6 6 6
9 9 9 9 9 9 9 9 9 8 8 8 8 8 8 8 8 8 8 8 8 8 7 8 7 7 7 7 7 7 7 7 7 7 7 7 7 6 6 6 6 6 6
9 9 9 9 9 8 8 8 8 8 8 8 8 8 8 8 8 8 8 8 7 7 7 7 7 7 7 7 7 7 7 7 7 7 6 6 6 6 6 6 6 6 6
9 9 9 8 8 8 8 8 8 8 8 8 8 8 7 8 7 7 7 7 7 7 7 7 7 7 7 7 7 7 7 7 7 6 6 6 6 6 6 6 6 5 5
9 8 8 8 8 8 8 8 8 7 7 7 7 7 7 7 7 7 7 7 7 7 7 6 6 6 7 6 7 7 6 6 6 6 6 6 6 6 5 5 5 5 5
8 8 8 8 8 8 8 7 7 7 7 7 7 7 7 7 7 7 7 6 6 6 6 6 6 6 6 6 6 6 6 6 6 6 6 5 5 5 5 5 5 5 5
8 8 8 8 8 7 7 7 7 7 6 6 6 6 6 6 6 6 6 6 6 6 6 6 6 6 6 6 6 6 6 6 6 5 5 5 5 5 5 5 5 5 5
7 7 7 7 7 7 7 7 6 6 6 6 6 6 6 6 6 6 6 6 6 5 5 5 5 5 5 5 5 5 5 5 5 5 5 5 5 4 4 4 4 4 4
7 7 7 7 6 6 6 6 6 6 6 6 6 6 6 5 5 5 5 5 5 5 5 5 5 5 5 5 5 5 5 5 5 5 5 4 4 4 4 4 4 4 4
6 6 6 6 6 6 6 5 5 5 5 5 5 5 5 5 5 5 5 5 5 5 5 5 5 5 5 5 5 5 5 5 5 4 4 4 4 4 4 4 4 4 4
6 6 6 6 5 5 5 5 5 5 5 5 5 5 5 5 5 5 4 4 4 4 4 4 4 4 4 4 4 4 4 4 4 4 4 4 4 3 3 3 3 3 3
6 6 5 5 5 5 4 4 4 4 4 4 4 4 4 4 4 4 4 4 4 4 4 4 4 4 4 4 4 4 4 4 4 4 4 4 4 3 3 3 3 3 3
5 5 5 5 5 4 4 4 4 4 4 4 4 4 4 4 4 4 4 4 4 4 4 4 4 4 4 4 4 4 4 4 4 4 4 3 3 3 3 3 3 3 3
Wind_Speed
1 2 2 2 2 2 2 2 2 2 2 3 3 3 3 3 3 3 3 3 4 3 3 3 3 2 2 2 2 2 3 2 2 2 1 1 1 1 1 2 2 2 1
1 1 1 1 2 2 2 2 2 2 2 2 3 3 3 3 3 4 4 4 4 4 4 3 3 2 2 2 2 3 3 2 2 2 2 2 2 1 1 2 1 1 1
1 1 1 1 1 1 1 2 2 3 3 3 3 3 3 4 4 4 4 4 4 4 4 4 3 3 3 3 3 3 2 2 2 3 2 2 2 1 2 2 2 2 2
2 2 2 1 1 1 1 2 2 2 3 3 3 3 3 4 4 4 4 4 4 4 4 4 4 4 4 4 3 3 3 3 3 3 3 3 3 2 3 3 2 2 2
2 2 1 1 1 1 1 1 2 2 3 3 3 3 3 3 3 3 4 4 4 4 4 4 4 3 2 3 3 4 4 3 3 3 3 3 3 3 3 3 3 3 3
2 2 1 2 2 2 2 2 1 2 2 2 2 2 3 3 1 2 4 4 4 5 5 5 4 4 4 4 4 4 4 5 4 4 4 4 5 4 4 4 3 3 3
1 1 2 2 2 2 2 2 2 2 2 2 2 3 3 2 2 3 5 5 5 5 5 5 4 4 5 5 5 6 5 5 5 6 6 5 5 4 5 5 5 5 4
2 2 2 2 2 2 2 2 3 2 2 2 3 3 3 2 1 2 4 6 5 5 6 6 5 5 5 5 5 5 5 5 6 6 6 5 4 4 5 5 5 5 4
2 2 2 2 2 2 3 3 3 2 2 3 3 3 4 3 2 3 4 4 4 5 5 5 6 6 3 4 6 6 5 4 4 4 3 2 1 2 3 4 4 4 5
3 3 3 3 3 3 3 3 3 3 3 3 3 4 4 4 2 3 5 4 4 4 3 4 4 5 4 5 7 6 6 5 4 4 4 5 5 5 6 6 5 5 5
3 3 2 3 3 3 3 2 2 3 3 3 4 4 4 4 2 3 4 4 4 4 4 3 3 4 5 6 8 7 6 5 5 5 5 4 4 4 5 6 6 5 5
3 3 3 3 3 2 2 2 3 3 3 3 4 3 3 3 3 3 4 5 5 5 4 4 3 3 5 7 7 5 4 5 4 4 4 5 5 5 5 5 5 6 5
3 3 3 3 3 3 3 3 3 3 3 3 4 4 3 3 3 3 4 4 5 5 4 3 3 4 5 5 6 6 6 5 5 5 5 6 5 5 4 4 4 4 5
4 3 3 3 3 4 3 3 3 4 4 4 4 4 4 4 3 3 3 3 4 4 4 3 3 4 5 4 4 5 5 5 5 5 6 5 4 4 4 4 4 4 4
4 4 4 4 3 3 3 3 4 3 4 4 5 5 5 5 4 4 4 4 4 4 4 4 3 3 4 4 4 4 5 5 5 5 5 5 5 5 5 5 5 5 6
4 4 4 3 3 3 3 3 2 3 3 4 5 5 5 4 3 3 4 5 4 3 4 4 4 4 5 5 5 5 5 5 5 5 6 6 5 6 5 5 5 6 6
5 4 4 4 4 4 3 4 3 3 4 4 4 5 5 5 4 4 4 4 4 4 4 5 5 5 5 5 6 6 6 5 5 5 6 6 6 6 6 6 6 6 6
5 4 4 4 4 4 4 4 4 4 4 3 3 4 4 4 4 4 4 3 3 4 5 5 5 5 5 5 6 5 5 5 5 6 6 6 6 6 6 6 6 7 7
4 3 3 3 3 4 4 4 4 4 4 4 3 3 3 4 4 4 4 3 4 4 5 5 5 5 5 5 5 5 5 5 5 5 5 6 6 6 6 6 7 7 7
3 3 3 3 3 3 3 3 4 4 4 4 4 4 2 2 3 2 3 4 4 5 5 5 5 5 5 5 5 5 5 5 6 5 5 5 6 6 7 7 7 7 7
3 2 3 3 3 3 3 4 4 4 4 4 4 3 2 3 4 4 4 4 5 5 5 6 5 5 5 5 5 6 6 6 5 5 5 5 5 6 6 6 6 6 6
3 2 3 3 3 3 4 4 4 4 5 5 5 3 3 4 4 4 4 5 5 5 5 5 5 5 4 5 5 5 6 6 6 5 5 5 5 6 6 6 6 6 5
3 3 3 3 3 3 4 4 4 4 4 5 5 4 3 4 5 5 5 5 5 5 5 5 5 4 4 5 5 5 6 6 6 6 6 6 5 5 5 6 6 6 6
3 3 3 3 3 3 4 4 4 4 4 4 4 4 4 4 5 5 5 5 5 5 5 5 5 6 6 5 5 5 5 6 6 6 7 6 6 6 5 6 6 7 7
3 3 3 3 3 3 3 4 4 4 4 4 4 4 4 4 5 5 5 5 5 5 6 5 5 5 7 7 6 5 5 5 5 6 6 6 6 6 6 6 6 6 6
4 4 4 3 4 4 4 4 4 4 4 4 4 4 4 5 5 5 5 4 5 5 5 5 6 6 7 6 7 6 5 5 5 6 5 5 5 5 5 5 6 6 6
Wind_Direction
196 200 199 204 216 217 219 225 234 238 228 230 224 220 218 212 212 213 228 223 227 223 220 222 223 223 219 220 223 235 245 252 255 266 258 227 247 264 295 298 310 316 18
161 169 180 193 203 217 227 230 234 241 236 236 230 226 220 223 222 221 227 230 230 227 222 219 220 207 221 222 225 232 234 238 236 243 243 228 237 251 266 274 280 296 316
160 163 171 186 199 225 236 231 237 239 230 230 232 234 224 224 232 234 233 231 230 230 225 221 217 213 223 220 220 228 228 219 223 224 236 240 239 234 257 266 272 275 284
180 185 191 198 210 221 232 232 228 239 239 235 238 241 234 229 234 236 235 233 231 229 226 224 221 222 230 229 224 227 225 217 214 214 220 224 228 239 245 249 255 261 274
191 204 213 211 208 222 222 236 241 240 246 242 244 246 239 234 235 240 241 239 235 232 228 227 223 226 255 249 241 230 220 219 218 221 223 230 229 226 235 240 251 258 264
204 210 213 218 206 212 218 219 226 236 242 248 245 244 239 235 191 236 254 242 240 238 234 231 221 214 224 231 248 249 244 232 229 230 236 239 242 236 233 239 245 253 263
222 242 235 219 204 203 206 206 217 223 227 241 243 242 246 234 169 219 249 257 245 244 240 233 229 226 221 231 222 221 236 250 253 247 248 253 252 241 232 237 242 253 265
216 248 236 215 207 202 203 212 228 237 230 240 251 252 254 251 201 228 243 252 251 248 244 241 237 235 228 230 227 227 232 231 233 242 249 257 260 247 240 247 249 250 260
227 247 233 216 213 214 216 224 231 236 242 249 254 259 259 247 198 231 247 252 256 256 250 249 246 244 222 223 228 228 232 236 223 239 271 263 261 246 245 232 231 236 249
230 234 234 222 219 220 227 232 232 234 246 255 256 261 266 268 215 226 250 256 259 262 262 261 251 253 229 221 232 233 237 237 227 218 222 218 220 215 226 236 237 243 252
231 228 224 217 219 221 231 236 243 244 250 257 262 265 268 274 243 217 243 258 263 263 261 262 259 227 227 231 245 244 246 244 230 225 224 224 225 225 224 232 239 246 250
222 217 220 215 212 219 228 242 252 256 258 262 268 274 276 272 271 242 238 255 273 263 263 261 261 236 240 237 242 247 236 234 233 226 227 229 231 233 232 232 235 241 253
223 224 225 228 220 221 231 241 250 253 259 265 267 270 273 273 262 235 229 240 254 259 263 280 275 248 252 245 235 226 222 229 229 229 232 235 236 235 229 225 230 236 247
224 229 231 233 239 233 232 241 251 256 257 262 265 266 272 275 276 270 257 247 239 250 261 255 237 235 244 253 237 228 233 235 234 239 242 244 240 229 225 222 227 227 241
229 230 234 235 239 247 243 251 257 262 267 262 266 269 271 271 283 299 278 264 259 259 261 259 260 256 251 244 239 236 235 235 235 239 239 238 236 234 234 230 230 232 241
236 240 241 239 241 247 253 256 256 250 254 258 267 273 273 277 293 276 270 276 274 256 250 246 248 248 250 248 244 241 239 239 239 238 239 239 238 237 236 231 231 234 241
244 245 244 241 239 243 252 260 269 265 234 239 246 259 265 279 275 265 261 255 245 231 243 246 248 249 252 251 246 244 245 243 241 240 240 241 241 242 242 239 234 237 245
251 251 249 248 246 246 252 260 266 270 280 282 251 237 246 257 267 264 252 231 240 235 250 253 256 257 258 256 252 250 250 247 241 240 241 242 242 242 244 245 241 242 245
250 250 248 251 251 250 251 258 265 269 271 275 281 267 234 238 241 236 222 241 249 250 254 256 258 261 262 261 259 255 251 248 246 244 243 243 242 242 245 249 251 249 248
248 251 249 251 251 253 252 255 263 270 272 272 277 282 279 269 265 249 243 254 256 258 260 260 261 263 263 262 260 254 249 245 243 242 244 246 246 245 247 251 251 249 246
247 244 232 243 250 257 263 266 265 267 269 273 279 282 265 258 258 256 252 253 256 260 262 261 262 263 261 261 258 250 246 244 241 240 242 244 245 247 249 250 251 252 253
246 249 247 249 255 260 266 268 268 267 267 270 277 271 220 246 258 256 254 256 259 260 262 263 262 262 263 261 259 255 248 244 241 240 242 243 241 242 243 245 247 248 248
245 250 255 258 258 259 261 267 270 272 273 269 271 272 259 257 259 260 261 262 261 259 257 256 256 259 263 264 262 256 251 248 243 239 237 239 240 242 244 245 245 246 246
245 248 252 257 261 263 263 266 270 274 279 279 273 270 265 261 262 264 265 265 265 263 261 257 257 261 266 271 271 264 265 269 265 251 238 236 237 241 242 245 247 247 246
244 246 250 255 256 258 261 263 266 271 275 279 279 275 270 268 267 268 268 267 266 265 264 261 262 262 265 266 270 271 273 271 272 268 245 235 232 234 237 240 243 246 246
244 246 249 252 254 256 257 259 263 268 271 275 278 280 281 276 273 271 269 269 269 267 267 265 265 264 268 269 268 273 272 267 267 269 256 240 233 236 237 238 242 242 246
Height
1529 1530 1530 1530 1531 1531 1532 1532 1533 1533 1533 1533 1533 1533 1533 1532 1532 1532 1533 1533 1533 1533 1533 1533 1533 1533 1533 1533 1533 1533 1533 1533 1532 1532 1531 1531 1530 1530 1529 1528 1528 1527 1526
1528 1528 1528 1528 1529 1529 1530 1530 1531 1531 1531 1531 1531 1531 1531 1530 1530 1530 1530 1530 1531 1531 1531 1531 1531 1531 1531 1531 1531 1531 1531 1531 1531 1529 1529 1529 1528 1528 1527 1526 1526 1525 1525
1526 1526 1527 1527 1527 1528 1528 1528 1528 1528 1529 1529 1529 1528 1528 1528 1528 1528 1528 1528 1528 1528 1528 1529 1529 1529 1529 1529 1529 1529 1529 1528 1528 1528 1527 1527 1526 1526 1525 1525 1524 1524 1523
1524 1525 1525 1525 1525 1526 1526 1526 1525 1526 1526 1526 1526 1526 1526 1526 1526 1525 1525 1525 1526 1526 1526 1526 1526 1526 1526 1526 1526 1526 1526 1526 1526 1526 1525 1525 1525 1524 1524 1523 1523 1522 1521
1523 1523 1523 1523 1523 1523 1523 1523 1523 1523 1523 1524 1524 1524 1523 1523 1523 1523 1523 1523 1523 1523 1523 1523 1523 1523 1523 1524 1524 1524 1524 1524 1524 1523 1523 1523 1523 1522 1522 1521 1521 1520 1519
1520 1520 1520 1520 1520 1520 1521 1521 1521 1520 1521 1521 1521 1521 1521 1521 1520 1520 1520 1520 1520 1520 1520 1520 1520 1520 1520 1520 1521 1521 1521 1522 1521 1521 1521 1521 1520 1520 1520 1519 1519 1519 1518
1518 1517 1517 1517 1517 1517 1518 1518 1518 1518 1518 1518 1518 1518 1518 1518 1518 1518 1517 1517 1517 1517 1517 1518 1517 1517 1517 1518 1518 1518 1518 1518 1519 1519 1519 1518 1518 1518 1517 1517 1516 1516 1515
1515 1515 1514 1514 1515 1515 1515 1515 1515 1515 1515 1515 1515 1515 1515 1515 1515 1515 1514 1514 1514 1514 1514 1515 1514 1514 1514 1515 1515 1515 1515 1515 1515 1515 1515 1515 1515 1515 1514 1514 1514 1513 1512
1512 1512 1512 1512 1512 1512 1513 1513 1513 1513 1513 1513 1513 1512 1512 1512 1512 1511 1511 1511 1511 1511 1511 1511 1511 1511 1511 1511 1512 1512 1511 1511 1511 1511 1511 1511 1511 1511 1511 1511 1510 1510 1509
1510 1510 1510 1510 1510 1510 1510 1510 1510 1510 1510 1510 1510 1509 1509 1509 1508 1508 1508 1508 1508 1507 1507 1507 1507 1507 1507 1507 1508 1508 1507 1507 1507 1507 1507 1507 1507 1507 1507 1507 1507 1507 1506
1507 1507 1507 1507 1508 1508 1508 1508 1507 1507 1507 1507 1507 1506 1506 1505 1505 1504 1504 1504 1504 1504 1504 1503 1503 1503 1503 1503 1504 1504 1503 1504 1503 1503 1503 1503 1503 1503 1502 1502 1502 1503 1503
1505 1505 1505 1505 1505 1506 1505 1505 1505 1505 1504 1504 1504 1503 1502 1502 1502 1501 1501 1501 1501 1501 1500 1500 1499 1499 1499 1499 1499 1499 1499 1499 1499 1499 1499 1499 1499 1498 1498 1498 1498 1498 1498
1502 1502 1502 1502 1503 1503 1503 1503 1502 1502 1502 1501 1501 1500 1499 1498 1498 1497 1497 1497 1497 1497 1497 1496 1496 1495 1495 1495 1494 1495 1495 1495 1495 1495 1495 1495 1495 1495 1494 1494 1494 1494 1493
1499 1500 1500 1500 1500 1500 1500 1500 1500 1499 1498 1498 1497 1496 1496 1495 1494 1494 1494 1494 1493 1493 1493 1492 1492 1491 1491 1490 1490 1490 1491 1491 1491 1491 1491 1491 1491 1490 1490 1490 1490 1490 1489
1497 1497 1498 1497 1497 1497 1497 1496 1496 1496 1495 1494 1494 1493 1492 1491 1491 1490 1490 1489 1489 1489 1489 1488 1488 1488 1487 1487 1486 1486 1486 1486 1486 1486 1487 1486 1486 1486 1486 1486 1486 1486 1485
1495 1494 1494 1494 1494 1493 1493 1493 1492 1491 1490 1490 1489 1489 1488 1487 1487 1486 1486 1485 1485 1485 1485 1484 1484 1483 1483 1483 1482 1482 1482 1482 1482 1482 1482 1482 1482 1482 1482 1482 1481 1481 1481
1491 1491 1491 1491 1491 1490 1489 1489 1488 1487 1486 1485 1484 1484 1483 1482 1482 1481 1481 1481 1481 1481 1480 1480 1480 1479 1479 1479 1478 1478 1478 1478 1478 1477 1477 1477 1477 1477 1477 1477 1477 1476 1476
1487 1487 1487 1487 1487 1486 1486 1485 1484 1483 1482 1481 1480 1479 1478 1478 1477 1477 1477 1477 1476 1476 1476 1476 1476 1475 1475 1474 1474 1474 1473 1473 1473 1473 1473 1473 1472 1472 1472 1472 1472 1472 1472
1484 1483 1483 1483 1483 1482 1482 1481 1480 1479 1478 1477 1476 1475 1474 1473 1473 1472 1472 1472 1472 1472 1471 1471 1471 1471 1470 1470 1469 1469 1468 1468 1468 1468 1467 1467 1467 1467 1467 1467 1467 1467 1467
1480 1479 1479 1479 1479 1478 1478 1477 1476 1475 1473 1472 1472 1471 1470 1469 1469 1469 1468 1468 1468 1468 1467 1467 1466 1466 1465 1464 1464 1464 1463 1463 1463 1463 1462 1462 1462 1462 1462 1462 1462 1462 1462
1476 1476 1475 1475 1475 1474 1473 1473 1472 1470 1469 1468 1468 1467 1466 1466 1465 1465 1464 1464 1464 1463 1462 1462 1461 1461 1460 1459 1458 1458 1458 1457 1457 1457 1457 1457 1457 1457 1457 1457 1457 1457 1457
1473 1472 1472 1471 1471 1470 1469 1469 1468 1466 1465 1465 1464 1463 1462 1462 1461 1461 1460 1459 1459 1458 1458 1457 1456 1455 1455 1454 1453 1453 1452 1452 1452 1452 1452 1452 1452 1452 1452 1452 1452 1452 1451
1469 1469 1468 1467 1467 1466 1465 1465 1464 1463 1462 1461 1460 1459 1459 1458 1457 1457 1456 1455 1454 1453 1453 1452 1451 1451 1450 1449 1448 1447 1446 1446 1446 1446 1446 1446 1446 1447 1447 1447 1447 1447 1447
1465 1464 1464 1463 1463 1462 1461 1461 1460 1459 1458 1457 1456 1455 1455 1454 1453 1452 1451 1450 1449 1449 1448 1447 1447 1446 1445 1444 1443 1442 1442 1441 1442 1442 1442 1442 1442 1442 1442 1442 1442 1442 1442
1461 1460 1460 1459 1459 1458 1457 1457 1456 1455 1455 1454 1453 1452 1451 1450 1449 1448 1447 1446 1445 1444 1443 1442 1442 1441 1440 1439 1439 1438 1437 1437 1437 1437 1436 1436 1436 1437 1437 1437 1437 1437 1437
1456 1456 1455 1455 1454 1454 1453 1453 1452 1452 1451 1450 1449 1448 1447 1446 1445 1444 1442 1441 1440 1439 1439 1438 1437 1436 1436 1435 1434 1433 1433 1432 1432 1432 1432 1432 1432 1432 1432 1432 1432 1432 1432